IU1JVO-13 Weather Reports


Display with metric or nautical units.
time (UTC)temp
F
wind
direction
speed
MPH
gust
MPH
rain 1hr
in
rain 24hr
in
rain mn
in
humidity
%
barometer
mb
20260502205022 57 278 0.0 1.0 0.00 0.00 0.00 64 1024.5
20260502204815 57 278 0.0 1.0 0.00 0.00 0.00 65 1024.4
20260502204314 57 278 0.0 0.0 0.00 0.00 0.00 66 1024.4
20260502204022 57 278 0.0 0.0 0.00 0.00 0.00 66 1024.5
20260502203812 57 278 0.0 0.0 0.00 0.00 0.00 66 1024.5
20260502203313 58 278 0.0 0.0 0.00 0.00 0.00 65 1024.5
20260502203022 58 278 0.0 0.0 0.00 0.00 0.00 65 1024.6
20260502202811 58 278 0.0 0.0 0.00 0.00 0.00 65 1024.6
20260502202311 58 279 0.0 1.0 0.00 0.00 0.00 64 1024.5
20260502202022 58 280 0.0 1.0 0.00 0.00 0.00 65 1024.5
20260502201810 58 280 0.0 1.0 0.00 0.00 0.00 64 1024.4
20260502201306 58 281 0.0 1.0 0.00 0.00 0.00 64 1024.4
20260502201021 58 303 0.0 1.0 0.00 0.00 0.00 64 1024.6
20260502200805 58 333 0.0 1.0 0.00 0.00 0.00 63 1024.6
20260502200304 58 19 0.0 1.0 0.00 0.00 0.00 63 1024.4
20260502200022 58 19 0.0 1.0 0.00 0.00 0.00 63 1024.4
20260502195802 58 19 0.0 1.0 0.00 0.00 0.00 64 1024.5
20260502195301 58 19 0.0 1.0 0.00 0.00 0.00 64 1024.5
20260502195021 58 19 0.0 1.0 0.00 0.00 0.00 63 1024.5
20260502194803 58 19 0.0 1.0 0.00 0.00 0.00 63 1024.5
20260502194300 58 19 0.0 1.0 0.00 0.00 0.00 64 1024.4
20260502194022 59 19 0.0 1.0 0.00 0.00 0.00 64 1024.4
20260502193759 59 19 0.0 1.0 0.00 0.00 0.00 64 1024.1
20260502193257 59 19 0.0 1.0 0.00 0.00 0.00 63 1024.2
20260502193022 59 19 0.0 0.0 0.00 0.00 0.00 63 1024.1
20260502192756 59 19 0.0 0.0 0.00 0.00 0.00 62 1024.2
20260502192258 60 19 0.0 0.0 0.00 0.00 0.00 62 1024.3
20260502192034 60 19 0.0 1.0 0.00 0.00 0.00 60 1024.1
20260502192028 60 19 0.0 1.0 0.00 0.00 0.00 59 1024.1
20260502191257 60 19 0.0 1.0 0.00 0.00 0.00 59 1024.1
20260502191023 60 19 0.0 1.0 0.00 0.00 0.00 59 1023.8
20260502190802 60 48 0.0 2.0 0.00 0.00 0.00 57 1023.8
20260502190758 60 25 0.0 1.0 0.00 0.00 0.00 58 1023.9
20260502190022 60 59 0.0 2.0 0.00 0.00 0.00 58 1023.7
20260502185756 61 65 0.0 2.0 0.00 0.00 0.00 58 1023.7
20260502185256 61 56 0.0 2.0 0.00 0.00 0.00 56 1023.7
20260502185023 61 41 0.0 2.0 0.00 0.00 0.00 55 1023.7
20260502184756 61 21 0.0 2.0 0.00 0.00 0.00 56 1023.7
20260502184257 61 14 0.0 3.0 0.00 0.00 0.00 56 1023.7
20260502184027 62 28 0.0 3.0 0.00 0.00 0.00 54 1023.8
20260502183755 62 44 0.0 3.0 0.00 0.00 0.00 54 1023.7
20260502183258 62 52 0.0 3.0 0.00 0.00 0.00 52 1023.8
20260502183020 62 50 0.0 3.0 0.00 0.00 0.00 52 1023.8
20260502182756 62 51 1.0 4.0 0.00 0.00 0.00 52 1023.8
20260502182256 63 261 0.0 4.0 0.00 0.00 0.00 52 1023.8
20260502182020 63 255 0.0 4.0 0.00 0.00 0.00 51 1023.6
20260502181756 64 263 1.0 4.0 0.00 0.00 0.00 49 1023.6
20260502181257 64 326 1.0 4.0 0.00 0.00 0.00 46 1023.6
20260502181021 64 67 0.0 4.0 0.00 0.00 0.00 47 1023.6
20260502180757 64 84 0.0 3.0 0.00 0.00 0.00 48 1023.6
20260502180257 64 79 0.0 4.0 0.00 0.00 0.00 49 1023.3
20260502170255 66 42 1.0 7.0 0.00 0.00 0.00 46 1023.6
20260502164252 68 97 2.0 8.0 0.00 0.00 0.00 45 1023.7
20260502164017 68 103 2.0 8.0 0.00 0.00 0.00 44 1023.7
20260502163752 68 96 2.0 8.0 0.00 0.00 0.00 44 1023.9
20260502163251 68 67 2.0 8.0 0.00 0.00 0.00 44 1023.7
20260502163016 68 354 2.0 8.0 0.00 0.00 0.00 45 1023.8
20260502162751 68 341 2.0 8.0 0.00 0.00 0.00 45 1023.8
20260502162251 68 317 2.0 6.0 0.00 0.00 0.00 44 1023.9
20260502162017 68 238 2.0 6.0 0.00 0.00 0.00 44 1024.1
20260502161751 68 277 2.0 4.0 0.00 0.00 0.00 43 1024.1
20260502161251 68 229 2.0 6.0 0.00 0.00 0.00 44 1024.1
20260502161017 68 190 2.0 6.0 0.00 0.00 0.00 43 1024.1
20260502160751 68 204 2.0 6.0 0.00 0.00 0.00 43 1024.1
20260502160251 68 161 2.0 6.0 0.00 0.00 0.00 44 1024.1
20260502152250 70 94 2.0 6.0 0.00 0.00 0.00 44 1024.4
20260502152017 70 31 2.0 7.0 0.00 0.00 0.00 43 1024.2
20260502151750 71 250 1.0 7.0 0.00 0.00 0.00 43 1024.3
20260502151248 71 301 1.0 7.0 0.00 0.00 0.00 43 1024.4
20260502151016 71 291 2.0 7.0 0.00 0.00 0.00 43 1024.4
20260502150748 70 10 2.0 7.0 0.00 0.00 0.00 44 1024.4
20260502150312 70 71 2.0 6.0 0.00 0.00 0.00 43 1024.5
20260502150308 71 71 1.0 7.0 0.00 0.00 0.00 44 1024.5
20260502150300 70 93 2.0 7.0 0.00 0.00 0.00 45 1024.5
20260502130736 69 251 2.0 9.0 0.00 0.00 0.00 48 1025.5
20260502130236 69 251 2.0 9.0 0.00 0.00 0.00 49 1025.5
20260502123735 69 324 3.0 9.0 0.00 0.00 0.00 49 1025.3
20260502123235 69 270 3.0 8.0 0.00 0.00 0.00 50 1025.4
20260502123017 69 240 3.0 12.0 0.00 0.00 0.00 50 1025.4
20260502122736 69 251 3.0 12.0 0.00 0.00 0.00 49 1025.5
20260502122236 68 314 3.0 12.0 0.00 0.00 0.00 50 1025.4
20260502122017 68 355 3.0 12.0 0.00 0.00 0.00 51 1025.4
20260502121733 68 320 3.0 12.0 0.00 0.00 0.00 50 1025.4
20260502121234 68 291 3.0 14.0 0.00 0.00 0.00 50 1025.5
20260502121016 68 261 4.0 14.0 0.00 0.00 0.00 51 1025.6
20260502120734 68 275 4.0 17.0 0.00 0.00 0.00 50 1025.6
20260502120234 67 241 4.0 17.0 0.00 0.00 0.00 50 1025.8
20260502115733 67 241 5.0 17.0 0.00 0.00 0.00 50 1025.8
20260502115231 67 255 5.0 17.0 0.00 0.00 0.00 51 1025.9
20260502115015 67 246 5.0 17.0 0.00 0.00 0.00 52 1025.8
20260502114731 67 249 5.0 13.0 0.00 0.00 0.00 51 1025.8
20260502114455 66 232 5.0 12.0 0.00 0.00 0.00 50 1026.0
20260502114014 66 222 4.0 10.0 0.00 0.00 0.00 50 1025.9
20260502113731 67 199 4.0 11.0 0.00 0.00 0.00 51 1025.9
20260502113231 66 183 5.0 11.0 0.00 0.00 0.00 50 1026.0
20260502113015 66 201 5.0 11.0 0.00 0.00 0.00 49 1026.0
20260502112731 66 237 5.0 11.0 0.00 0.00 0.00 50 1026.1
20260502112232 66 328 5.0 11.0 0.00 0.00 0.00 51 1026.0
20260502112013 66 12 5.0 11.0 0.00 0.00 0.00 51 1026.0
20260502111730 66 18 5.0 10.0 0.00 0.00 0.00 52 1026.2
20260502111230 66 49 4.0 10.0 0.00 0.00 0.00 52 1026.2
20260502111013 66 325 4.0 10.0 0.00 0.00 0.00 51 1026.3
20260502110730 66 191 4.0 12.0 0.00 0.00 0.00 50 1026.4
20260502110227 65 128 4.0 12.0 0.00 0.00 0.00 51 1026.4
20260502110015 65 94 4.0 12.0 0.00 0.00 0.00 53 1026.5
20260502105728 65 66 5.0 12.0 0.00 0.00 0.00 52 1026.6
20260502105227 64 72 5.0 12.0 0.00 0.00 0.00 52 1026.7
20260502105012 64 63 5.0 12.0 0.00 0.00 0.00 51 1026.6
20260502104726 64 60 5.0 10.0 0.00 0.00 0.00 50 1026.7
20260502104226 65 52 4.0 9.0 0.00 0.00 0.00 51 1026.9
20260502104013 64 130 4.0 9.0 0.00 0.00 0.00 50 1026.8
20260502103726 64 87 4.0 9.0 0.00 0.00 0.00 51 1026.7
20260502103226 64 124 4.0 12.0 0.00 0.00 0.00 50 1026.7
20260502103012 64 110 4.0 14.0 0.00 0.00 0.00 51 1026.9
20260502103002 64 136 4.0 14.0 0.00 0.00 0.00 51 1026.9
20260502102226 64 140 5.0 14.0 0.00 0.00 0.00 51 1027.0
20260502102012 63 109 6.0 14.0 0.00 0.00 0.00 51 1026.9
20260502101952 63 68 6.0 14.0 0.00 0.00 0.00 51 1027.0
20260502101226 63 38 5.0 14.0 0.00 0.00 0.00 52 1026.9
20260502101012 63 63 4.0 9.0 0.00 0.00 0.00 52 1027.0
20260502100957 63 48 4.0 9.0 0.00 0.00 0.00 51 1027.1
20260502100226 63 170 4.0 9.0 0.00 0.00 0.00 51 1027.1
20260502091225 62 38 4.0 10.0 0.00 0.00 0.00 50 1027.7
20260502091013 62 359 4.0 10.0 0.00 0.00 0.00 51 1027.7
20260502090725 62 346 3.0 10.0 0.00 0.00 0.00 50 1027.6
20260502090226 62 83 2.0 8.0 0.00 0.00 0.00 51 1027.7
20260502071215 56 242 2.0 7.0 0.00 0.00 0.00 49 1028.4
20260502071011 56 244 2.0 7.0 0.00 0.00 0.00 49 1028.4
20260502070716 56 244 2.0 7.0 0.00 0.00 0.00 50 1028.4
20260502070217 55 241 2.0 7.0 0.00 0.00 0.00 51 1028.5
20260502070011 55 241 3.0 5.0 0.00 0.00 0.00 52 1028.5
20260502065717 55 240 3.0 5.0 0.00 0.00 0.00 51 1028.5
20260502065217 54 244 2.0 5.0 0.00 0.00 0.00 54 1028.4
20260502065011 54 246 2.0 5.0 0.00 0.00 0.00 54 1028.4
20260502064951 54 249 2.0 5.0 0.00 0.00 0.00 55 1028.3
20260502064217 53 248 2.0 4.0 0.00 0.00 0.00 57 1028.3
20260502064009 53 248 2.0 4.0 0.00 0.00 0.00 57 1028.4
20260502063950 53 248 2.0 4.0 0.00 0.00 0.00 58 1028.5
20260502063217 52 246 1.0 3.0 0.00 0.00 0.00 61 1028.4
20260502063009 52 244 1.0 3.0 0.00 0.00 0.00 62 1028.4
20260502062944 51 245 0.0 3.0 0.00 0.00 0.00 63 1028.4
20260502062451 51 245 1.0 3.0 0.00 0.00 0.00 64 1028.4
20260502062009 51 250 1.0 3.0 0.00 0.00 0.00 63 1028.4
20260502061942 50 254 1.0 3.0 0.00 0.00 0.00 64 1028.4
20260502061217 50 251 0.0 3.0 0.00 0.00 0.00 65 1028.4
20260502061007 49 242 0.0 2.0 0.00 0.00 0.00 67 1028.3
20260502060718 49 231 0.0 3.0 0.00 0.00 0.00 69 1028.3
20260502060233 49 293 1.0 5.0 0.00 0.00 0.00 65 1028.4
20260502060227 49 271 0.0 5.0 0.00 0.00 0.00 68 1028.2
20260502060202 49 278 0.0 5.0 0.00 0.00 0.00 67 1028.3
20260502055215 49 291 1.0 5.0 0.00 0.00 0.00 65 1028.3
20260502055005 49 298 1.0 5.0 0.00 0.00 0.00 65 1028.2
20260502054715 49 299 1.0 5.0 0.00 0.00 0.00 65 1028.3
20260502054216 48 289 1.0 5.0 0.00 0.00 0.00 66 1028.2
20260502054006 48 285 2.0 5.0 0.00 0.00 0.00 67 1028.2
20260502053715 48 279 2.0 5.0 0.00 0.00 0.00 66 1028.2
20260502053215 47 266 2.0 5.0 0.00 0.00 0.00 67 1028.3
20260502053006 47 268 1.0 5.0 0.00 0.00 0.00 68 1028.3
20260502052716 48 274 1.0 4.0 0.00 0.00 0.00 67 1028.2
20260502052216 48 301 1.0 3.0 0.00 0.00 0.00 65 1028.2
20260502052005 48 308 1.0 3.0 0.00 0.00 0.00 64 1028.3
20260502051716 48 317 1.0 3.0 0.00 0.00 0.00 65 1028.1
20260502051217 48 308 1.0 4.0 0.00 0.00 0.00 66 1028.1
20260502051004 48 308 1.0 4.0 0.00 0.00 0.00 66 1028.2
20260502050952 48 306 1.0 4.0 0.00 0.00 0.00 66 1028.1
20260502050217 48 298 1.0 4.0 0.00 0.00 0.00 66 1028.1
20260502050005 48 304 1.0 4.0 0.00 0.00 0.00 66 1028.1
20260502045717 48 297 1.0 4.0 0.00 0.00 0.00 66 1028.1
20260502045228 48 298 1.0 3.0 0.00 0.00 0.00 66 1028.0
20260502045222 48 301 1.0 4.0 0.00 0.00 0.00 66 1028.0
20260502045203 48 291 1.0 4.0 0.00 0.00 0.00 66 1028.1
20260502044217 48 292 1.0 3.0 0.00 0.00 0.00 67 1027.9
20260502044005 48 291 0.0 2.0 0.00 0.00 0.00 66 1028.0
20260502043943 48 286 0.0 3.0 0.00 0.00 0.00 66 1028.1
20260502043216 48 302 0.0 3.0 0.00 0.00 0.00 65 1028.2
20260502043005 48 311 0.0 3.0 0.00 0.00 0.00 65 1028.2
20260502042945 48 319 1.0 4.0 0.00 0.00 0.00 65 1028.1
20260502042215 48 318 0.0 4.0 0.00 0.00 0.00 67 1028.1
20260502042005 48 318 0.0 4.0 0.00 0.00 0.00 67 1028.1
20260502041949 48 311 0.0 4.0 0.00 0.00 0.00 67 1028.2
20260502041216 48 311 1.0 4.0 0.00 0.00 0.00 67 1028.1
20260502041005 48 306 1.0 4.0 0.00 0.00 0.00 67 1028.2
20260502040715 48 306 1.0 3.0 0.00 0.00 0.00 67 1028.1
20260502040217 48 276 1.0 3.0 0.00 0.00 0.00 67 1028.1
20260502040005 48 272 1.0 4.0 0.00 0.00 0.00 67 1028.1
20260502035716 48 269 1.0 4.0 0.00 0.00 0.00 67 1028.1
20260502035215 48 291 1.0 4.0 0.00 0.00 0.00 66 1028.1
20260502035005 48 295 1.0 4.0 0.00 0.00 0.00 66 1028.2
20260502034716 48 302 1.0 4.0 0.00 0.00 0.00 66 1028.2
20260502034218 49 303 2.0 4.0 0.00 0.00 0.00 66 1028.1
20260502034005 48 301 1.0 4.0 0.00 0.00 0.00 67 1028.1
20260502033716 48 301 1.0 4.0 0.00 0.00 0.00 67 1028.1
20260502033215 49 308 1.0 3.0 0.00 0.00 0.00 67 1028.1
20260502033011 49 318 1.0 3.0 0.00 0.00 0.00 67 1028.1
20260502032952 48 332 0.0 3.0 0.00 0.00 0.00 68 1028.0
20260502032215 48 328 0.0 2.0 0.00 0.00 0.00 69 1028.1
20260502032004 48 309 0.0 2.0 0.00 0.00 0.00 70 1028.1
20260502031718 47 300 0.0 3.0 0.00 0.00 0.00 71 1028.1
20260502031217 47 267 0.0 3.0 0.00 0.00 0.00 73 1028.1
20260502031004 47 284 0.0 5.0 0.00 0.00 0.00 73 1028.1
20260502030717 47 272 0.0 5.0 0.00 0.00 0.00 73 1028.1
20260502030216 47 299 1.0 5.0 0.00 0.00 0.00 72 1028.2
20260502030004 47 299 1.0 5.0 0.00 0.00 0.00 72 1028.1
20260502025716 47 291 1.0 5.0 0.00 0.00 0.00 72 1028.1
20260502025216 46 259 1.0 5.0 0.00 0.00 0.00 74 1028.0
20260502025005 46 250 0.0 5.0 0.00 0.00 0.00 75 1028.0
20260502024716 46 250 0.0 5.0 0.00 0.00 0.00 75 1028.0
20260502024216 46 253 0.0 2.0 0.00 0.00 0.00 76 1028.0
20260502024005 47 270 0.0 2.0 0.00 0.00 0.00 75 1028.0
20260502023720 47 295 0.0 3.0 0.00 0.00 0.00 74 1028.1
20260502023215 47 337 0.0 3.0 0.00 0.00 0.00 71 1028.1
20260502023004 47 336 0.0 3.0 0.00 0.00 0.00 73 1028.0
20260502022717 47 337 0.0 3.0 0.00 0.00 0.00 74 1028.1
20260502022212 47 37 0.0 3.0 0.00 0.00 0.00 75 1028.1
20260502022005 47 65 0.0 3.0 0.00 0.00 0.00 76 1028.1
20260502021711 47 77 0.0 2.0 0.00 0.00 0.00 75 1028.2
20260502021220 47 86 0.0 3.0 0.00 0.00 0.00 75 1028.0
20260502021015 47 242 0.0 3.0 0.00 0.00 0.00 75 1028.1
20260502020809 47 252 0.0 3.0 0.00 0.00 0.00 74 1028.0
20260502020211 48 284 1.0 3.0 0.00 0.00 0.00 73 1028.1
20260502020002 48 301 1.0 3.0 0.00 0.00 0.00 72 1028.2
20260502015711 49 322 1.0 3.0 0.00 0.00 0.00 69 1028.1
20260502015210 48 324 1.0 2.0 0.00 0.00 0.00 70 1028.1
20260502015001 49 339 1.0 2.0 0.00 0.00 0.00 70 1028.2
20260502014716 48 349 1.0 2.0 0.00 0.00 0.00 70 1028.2
20260502014712 49 347 0.0 2.0 0.00 0.00 0.00 68 1028.2
20260502014002 48 353 0.0 2.0 0.00 0.00 0.00 71 1028.2
20260502013712 48 0 0.0 2.0 0.00 0.00 0.00 71 1028.1
20260502013211 47 16 0.0 1.0 0.00 0.00 0.00 73 1028.0
20260502013001 47 16 0.0 1.0 0.00 0.00 0.00 74 1028.0
20260502012711 47 16 0.0 1.0 0.00 0.00 0.00 74 1028.0
20260502012212 48 16 0.0 2.0 0.00 0.00 0.00 73 1028.0
20260502012001 48 16 0.0 2.0 0.00 0.00 0.00 73 1028.1
20260502011944 48 16 0.0 2.0 0.00 0.00 0.00 72 1028.0
20260502011213 49 17 0.0 3.0 0.00 0.00 0.00 70 1027.9
20260502011001 49 17 0.0 3.0 0.00 0.00 0.00 70 1028.0
20260502010710 49 18 0.0 3.0 0.00 0.00 0.00 69 1028.0
20260502010208 49 11 0.0 3.0 0.00 0.00 0.00 69 1028.0
20260502010004 49 13 0.0 3.0 0.00 0.00 0.00 69 1027.9
20260502005707 50 59 1.0 3.0 0.00 0.00 0.00 69 1028.0
20260502005206 50 137 1.0 3.0 0.00 0.00 0.00 68 1028.0
20260502005001 50 101 1.0 3.0 0.00 0.00 0.00 67 1027.8
20260502004705 51 262 1.0 8.0 0.00 0.00 0.00 66 1028.1
20260502004206 51 291 1.0 8.0 0.00 0.00 0.00 64 1027.9
20260502004001 51 273 0.0 8.0 0.00 0.00 0.00 67 1028.0
20260502003935 52 286 1.0 8.0 0.00 0.00 0.00 63 1028.1
20260502003207 52 305 2.0 8.0 0.00 0.00 0.00 61 1028.1
20260502003001 53 310 3.0 8.0 0.00 0.00 0.00 60 1028.1
20260502002707 52 314 2.0 8.0 0.00 0.00 0.00 61 1028.2
20260502002432 52 312 2.0 5.0 0.00 0.00 0.00 62 1028.1
20260502002001 52 309 2.0 5.0 0.00 0.00 0.00 63 1028.1
20260502001706 52 318 1.0 5.0 0.00 0.00 0.00 66 1028.1
20260502001206 52 325 1.0 3.0 0.00 0.00 0.00 66 1028.1
20260502000958 52 334 1.0 3.0 0.00 0.00 0.00 66 1028.1
20260502000707 52 329 1.0 3.0 0.00 0.00 0.00 67 1028.2
20260502000207 52 326 1.0 3.0 0.00 0.00 0.00 66 1028.2
20260501235957 52 330 1.0 3.0 0.00 0.00 0.00 66 1028.3
20260501235707 52 337 1.0 7.0 0.00 0.00 0.00 65 1028.2
20260501235205 52 342 1.0 7.0 0.00 0.00 0.00 65 1028.3
20260501234958 53 335 1.0 7.0 0.00 0.00 0.00 64 1028.3
20260501234706 53 321 2.0 7.0 0.00 0.00 0.00 64 1028.4
20260501234206 53 319 2.0 7.0 0.00 0.00 0.00 63 1028.4
20260501233959 53 326 3.0 7.0 0.00 0.00 0.00 63 1028.5
20260501233706 53 336 2.0 7.0 0.00 0.00 0.00 65 1028.3
20260501233205 52 322 1.0 6.0 0.00 0.00 0.00 67 1028.5
20260501232958 52 318 1.0 6.0 0.00 0.00 0.00 67 1028.4
20260501232705 52 316 1.0 6.0 0.00 0.00 0.00 67 1028.3
20260501232205 53 307 1.0 6.0 0.00 0.00 0.00 66 1028.3
20260501231958 53 304 1.0 6.0 0.00 0.00 0.00 66 1028.3
20260501231935 53 294 1.0 6.0 0.00 0.00 0.00 65 1028.3
20260501231206 53 289 1.0 6.0 0.00 0.00 0.00 66 1028.4
20260501230958 53 283 2.0 6.0 0.00 0.00 0.00 66 1028.4
20260501230706 53 283 2.0 6.0 0.00 0.00 0.00 65 1028.4
20260501230204 53 311 2.0 6.0 0.00 0.00 0.00 66 1028.4
20260501225956 53 329 2.0 6.0 0.00 0.00 0.00 67 1028.3
20260501225704 52 339 1.0 4.0 0.00 0.00 0.00 68 1028.5
20260501225204 52 327 1.0 3.0 0.00 0.00 0.00 69 1028.5
20260501224957 52 318 1.0 3.0 0.00 0.00 0.00 69 1028.5
20260501224704 52 319 1.0 3.0 0.00 0.00 0.00 69 1028.3
20260501224208 52 298 0.0 3.0 0.00 0.00 0.00 70 1028.4
20260501223957 52 283 0.0 3.0 0.00 0.00 0.00 70 1028.4
20260501223701 52 284 1.0 3.0 0.00 0.00 0.00 70 1028.4
20260501223202 53 321 1.0 3.0 0.00 0.00 0.00 70 1028.5
20260501222958 53 335 1.0 3.0 0.00 0.00 0.00 69 1028.5
20260501222702 52 333 1.0 3.0 0.00 0.00 0.00 70 1028.3
20260501222201 52 336 1.0 3.0 0.00 0.00 0.00 70 1028.4
20260501221958 52 336 1.0 3.0 0.00 0.00 0.00 71 1028.4
20260501221701 52 333 1.0 3.0 0.00 0.00 0.00 71 1028.4
20260501221200 52 311 1.0 4.0 0.00 0.00 0.00 70 1028.5
20260501220955 52 301 1.0 4.0 0.00 0.00 0.00 70 1028.5
20260501220658 52 302 1.0 4.0 0.00 0.00 0.00 70 1028.5
20260501220158 52 310 1.0 4.0 0.00 0.00 0.00 70 1028.5
20260501215955 52 319 1.0 4.0 0.00 0.00 0.00 70 1028.3
20260501215657 52 319 1.0 4.0 0.00 0.00 0.00 71 1028.3
20260501215158 52 318 1.0 3.0 0.00 0.00 0.00 72 1028.4
20260501214955 52 304 0.0 3.0 0.00 0.00 0.00 73 1028.3
20260501214657 51 274 0.0 2.0 0.00 0.00 0.00 73 1028.2
20260501214158 51 231 0.0 2.0 0.00 0.00 0.00 74 1028.3
20260501213953 51 225 0.0 3.0 0.00 0.00 0.00 75 1028.3
20260501213658 52 243 0.0 3.0 0.00 0.00 0.00 74 1028.3
20260501213207 53 305 0.0 4.0 0.00 0.00 0.00 71 1028.2
20260501213203 52 294 0.0 4.0 0.00 0.00 0.00 73 1028.4
20260501213143 52 305 0.0 4.0 0.00 0.00 0.00 72 1028.2
20260501212156 53 303 1.0 4.0 0.00 0.00 0.00 71 1028.3
20260501211954 53 308 1.0 4.0 0.00 0.00 0.00 71 1028.3
20260501211654 53 321 2.0 4.0 0.00 0.00 0.00 71 1028.3
20260501211154 53 311 2.0 4.0 0.00 0.00 0.00 71 1028.3
20260501210950 53 310 2.0 4.0 0.00 0.00 0.00 70 1028.4
20260501210654 53 301 1.0 4.0 0.00 0.00 0.00 70 1028.4
20260501210154 53 321 1.0 4.0 0.00 0.00 0.00 70 1028.4
20260501205950 53 318 1.0 4.0 0.00 0.00 0.00 71 1028.4
20260501205654 53 314 1.0 4.0 0.00 0.00 0.00 72 1028.4
20260501205153 53 301 2.0 4.0 0.00 0.00 0.00 74 1028.3